STARLINK-11387, 62090

Orbit data source: Space-Track

STARLINK-11387, 62090 is a payload satellite owned by SpaceX/Seattle (US) in LEO that was launched on Mon, 25 Nov 2024 UTC via an FALCON 9 launch vehicle from the Air Force Eastern Test Range (AFETR). Payload-class satellites include a variety of spacecraft equipped with specific instruments for various scientific and technological missions. These include communications satellites like Starlink; space stations such as the ISS; scientific satellites like the Hubble; Earth observation satellites from companies like Planet Labs, Umbra, and HawkEye 360; GPS; miniature CubeSats for education and research; and military/defense satellites.

Loading next visibility...
Identifier
62090, 2024-220C
Orbit
LEO
Country
Flag of USUS
Related business
Manufacturer
SpaceX/Seattle
Mission
Operational Commercial Communications
Bus & Motor
STARLINK V2MD, Unknown motor
Mass
960 kg wet, ~910 kg dry
Launch date (UTC)
2024-11-25 (2 years ago)
Launch vehicle
FALCON 9
Launch site
Air Force Eastern Test Range (AFETR)
Object type
Payload
Rocket body
Debris
Shape & HBR
Box + 2 Pan, 18.1 m
Radar Cross Section
36.964 m², Large (>1 m²)

Expand to show TLE details & history
Last TLE update: 1 day ago

TLE from 1 day ago
0 STARLINK-11387
1 62090U 24220C   26170.63274596  .00194497  00000-0  14808-2 0  9992
2 62090  42.9999 148.8211 0000618 310.9199  49.1615 15.70891698 91081
Epoch: 2026-06-19T15:11Z
TLE epoch observation values (Epoch: 2026-06-19T15:11:09.250Z)
Latitude
-0.00004°
Longitude
13.17358°
Altitude
355.846 km
Speed
7.698 km/s
True Right ascension
09h 55m 17s
True Declination
0° 00' 00"
Sunlit
Object was in daylight at epoch
Visualization orbit readout
Latitude
Unknown
Longitude
Unknown
Altitude
Unknown
Speed
Unknown
Apparent Right ascension
Unknown
Apparent Declination
Unknown
Sunlit
N/A
Visualization observer readout
Local Sidereal Time
07:11:44
Azimuth
Unknown
Elevation
Unknown
Doppler factor
Unknown
Orbital elements
Apogee altitude
358.745 km
Perigee altitude
357.913 km
Semi-major axis
6,736.466 km
Eccentricity
0.00006
Inclination
42.9999°
RAAN
148.8211°
Arg. of periapsis
310.9199°
True anomaly
49.16686°
Mean anomaly
49.1615°
Eccentric anomaly
49.16418°
Mean motion
3.9255 °/min
Orbital period
91.71 mins
BSTAR
0.0014808
Loading maneuver chart data...
Computing Atmospheric mass density...
Loading historical data...
Loading historical data...
Loading historical data...
Loading historical data...
Loading historical data...
Loading historical data...
Loading historical data...

Documentation

Showing up to 5 results
|